Regional Weather Roundup
Issued by NWS Raleigh/Durham, NC

Home | Current Version | Previous Version | Text Only | Print | Product List | Glossary On
Versions: 1 2 3 4 5 6 7 8 9 10 11 12 13 14 15 16 17 18 19 20 21 22 23 24 25 26 27
000
ASUS42 KRAH 161510
RWRRAH
NORTH CAROLINA WEATHER ROUNDUP
NATIONAL WEATHER SERVICE RALEIGH NC
1100 AM EDT WED AUG 16 2017

NOTE: "FAIR" INDICATES FEW OR NO CLOUDS BELOW 12,000 FEET WITH NO
SIGNIFICANT WEATHER AND/OR OBSTRUCTIONS TO VISIBILITY.

NCZ001-053-055-056-065-067-161600-
WESTERN NORTH CAROLINA

CITY           SKY/WX    TMP DP  RH WIND       PRES   REMARKS
ASHEVILLE      SUNNY     80  70  71 VRB5      30.16S
JEFFERSON      MOSUNNY   74  65  74 CALM      30.20S
MORGANTON      SUNNY     80  68  65 CALM      30.13S
HICKORY        SUNNY     84  70  62 E3        30.09S
RUTHERFORDTON  SUNNY     84  71  64 CALM      30.10S
MOUNT AIRY     SUNNY     84  71  66 E3        30.10S
BOONE          SUNNY     75  63  66 W9        30.21R
$$

NCZ021-022-025-041-071-084-088-161600-
CENTRAL NORTH CAROLINA

CITY           SKY/WX    TMP DP  RH WIND       PRES   REMARKS
CHARLOTTE      MOSUNNY   86  75  69 N5        30.07S HX  95
GREENSBORO     PTSUNNY   83  75  77 NE6       30.07R
WINSTON-SALEM  MOSUNNY   82  74  76 NE3       30.08S
RALEIGH-DURHAM MOSUNNY   84  72  67 E8        30.04S
FORT BRAGG     PTSUNNY   87  75  67 NW7       30.02R HX  96
FAYETTEVILLE   MOSUNNY   86  76  71 N5        30.02R HX  96
BURLINGTON     MOSUNNY  N/A N/A N/A MISG      30.06R
LAURINBURG     MOSUNNY   87  78  74 NE5       30.03S HX 100
$$

NCZ011-015-027-028-043-044-047-080-103-161600-
NORTHEASTERN NORTH CAROLINA

CITY           SKY/WX    TMP DP  RH WIND       PRES   REMARKS
ROCKY MT-WILSO CLOUDY    78  74  87 NE8       30.03S
GREENVILLE     PTSUNNY   81  75  83 N6        30.03S
WASHINGTON     PTSUNNY   80  74  82 NE6       30.01S
ELIZABETH CITY PTSUNNY   82  76  81 N8        30.00S
MANTEO         CLOUDY    80  75  86 NE7       30.00S
CAPE HATTERAS  PTSUNNY   84  78  82 VRB7      29.99R HX  95
$$

NCZ078-087-090-091-093-098-101-161600-
SOUTHEASTERN NORTH CAROLINA

CITY           SKY/WX    TMP DP  RH WIND       PRES   REMARKS
LUMBERTON      MOSUNNY   85  76  74 N5        30.01S
GOLDSBORO      PTSUNNY   81  81 100 N7        30.02R
KINSTON        CLOUDY    79  79 100 N5        30.03R
KENANSVILLE    PTSUNNY   84  75  74 NE3       30.02R
NEW BERN       CLOUDY    80  77  90 N6        30.02R
CHERRY POINT   CLOUDY    82  76  81 NE5       30.02R
BEAUFORT       PTSUNNY   87  80  79 N9        29.99S HX 103
JACKSONVILLE   PTSUNNY   82  77  84 N6        30.00R
WILMINGTON     MOSUNNY   87  76  69 N6        30.00S HX  97
$$





USA.gov is the U.S. government's official web portal to all federal, state and local government web resources and services.